FW4441 Weather Reports


Display with metric or nautical units.
time (UTC)temp
F
wind
direction
speed
MPH
gust
MPH
rain 1hr
in
rain 24hr
in
rain mn
in
humidity
%
barometer
mb
20260506050144 56 354 6.0 9.0 0.00 0.00 0.00 78 1012.0
20260506044532 57 2 5.0 8.0 0.00 0.00 0.00 77 1011.8
20260506043029 57 359 4.0 7.0 0.00 0.00 0.00 76 1011.6
20260506041605 58 348 6.0 11.0 0.00 0.00 0.00 76 1011.5
20260506034529 58 337 6.0 12.0 0.00 0.00 0.00 73 1011.1
20260506033106 60 345 5.0 8.0 0.00 0.00 0.00 71 1010.8
20260506031532 61 2 7.0 12.0 0.00 0.00 0.00 70 1010.6
20260506030032 62 347 7.0 13.0 0.00 0.00 0.00 69 1010.4
20260506024531 62 343 7.0 13.0 0.00 0.00 0.00 68 1010.2
20260506023029 63 358 7.0 13.0 0.00 0.00 0.00 66 1010.1
20260506021531 64 353 7.0 12.0 0.00 0.00 0.00 65 1009.9
20260506020030 64 7 8.0 14.0 0.00 0.00 0.00 65 1009.8
20260506014531 65 4 8.0 13.0 0.00 0.00 0.00 64 1009.8
20260506013032 65 344 7.0 12.0 0.00 0.00 0.00 63 1009.8
20260506011531 67 341 7.0 11.0 0.00 0.00 0.00 61 1009.7
20260506010031 68 338 7.0 15.0 0.00 0.00 0.00 60 1009.7
20260506004532 70 333 8.0 15.0 0.00 0.00 0.00 58 1009.7
20260506003029 71 334 8.0 15.0 0.00 0.00 0.00 57 1009.6
20260506001542 72 346 7.0 12.0 0.00 0.00 0.00 57 1009.5
20260505234530 73 336 6.0 11.0 0.00 0.00 0.00 57 1009.9
20260505233031 73 342 7.0 13.0 0.00 0.00 0.00 56 1009.9
20260505231531 74 347 7.0 13.0 0.00 0.00 0.00 56 1009.9
20260505230032 74 327 7.0 10.0 0.00 0.00 0.00 56 1010.0
20260505224532 74 293 5.0 10.0 0.00 0.00 0.00 56 1010.2
20260505223029 74 323 7.0 12.0 0.00 0.00 0.00 56 1010.2
20260505221532 74 332 7.0 14.0 0.00 0.00 0.00 56 1010.4
20260505220031 74 295 6.0 14.0 0.00 0.00 0.00 55 1010.6
20260505214532 74 292 7.0 14.0 0.00 0.00 0.00 56 1010.7
20260505213104 74 292 7.0 14.0 0.00 0.00 0.00 55 1010.7
20260505211530 74 291 7.0 13.0 0.00 0.00 0.00 55 1010.7
20260505210030 74 286 7.0 13.0 0.00 0.00 0.00 56 1010.9
20260505204531 73 291 8.0 15.0 0.00 0.00 0.00 55 1011.1
20260505203038 72 286 8.0 14.0 0.00 0.00 0.00 56 1011.1
20260505201529 72 287 8.0 15.0 0.00 0.00 0.00 56 1011.2
20260505200032 72 286 7.0 14.0 0.00 0.00 0.00 56 1011.3
20260505194605 72 283 7.0 18.0 0.00 0.00 0.00 57 1011.4
20260505193030 71 275 8.0 16.0 0.00 0.00 0.00 58 1011.6
20260505190106 70 282 8.0 14.0 0.00 0.00 0.00 59 1011.6
20260505184530 69 273 7.0 14.0 0.00 0.00 0.00 60 1011.8
20260505183030 68 279 8.0 16.0 0.00 0.00 0.00 61 1011.8
20260505173029 67 279 8.0 15.0 0.00 0.00 0.00 63 1011.8
20260505171605 66 274 7.0 14.0 0.00 0.00 0.00 64 1011.7
20260505170032 66 271 7.0 20.0 0.00 0.00 0.00 64 1011.7
20260505164531 65 266 6.0 12.0 0.00 0.00 0.00 65 1011.7
20260505163107 64 266 6.0 13.0 0.00 0.00 0.00 66 1011.7
20260505161532 64 263 7.0 16.0 0.00 0.00 0.00 66 1011.7
20260505151531 61 287 5.0 11.0 0.00 0.00 0.00 72 1011.5
20260505123036 53 285 3.0 9.0 0.00 0.00 0.00 86 1010.4
20260505121533 53 299 4.0 9.0 0.00 0.00 0.00 85 1010.3
20260505120031 53 320 1.0 6.0 0.00 0.00 0.00 85 1010.2
20260505114529 54 312 2.0 5.0 0.00 0.00 0.00 85 1010.2
20260505113034 54 313 3.0 6.0 0.00 0.00 0.00 85 1010.1
20260505111531 54 318 4.0 7.0 0.00 0.00 0.00 84 1010.0
20260505110107 55 8 3.0 9.0 0.00 0.00 0.00 83 1009.9
20260505101530 56 333 2.0 7.0 0.00 0.00 0.00 82 1009.6
20260505100038 55 329 4.0 8.0 0.00 0.00 0.00 82 1009.5
20260505094531 56 340 2.0 6.0 0.00 0.00 0.00 81 1009.4
20260505093031 56 351 1.0 4.0 0.00 0.00 0.00 81 1009.3
20260505091530 57 348 2.0 5.0 0.00 0.00 0.00 81 1009.3
20260505090031 57 314 2.0 6.0 0.00 0.00 0.00 80 1009.1
20260505084606 57 348 1.0 6.0 0.00 0.00 0.00 80 1009.1
20260505083030 58 325 1.0 5.0 0.00 0.00 0.00 79 1009.1
20260505081643 58 329 2.0 5.0 0.00 0.00 0.00 78 1008.9
20260505080032 59 13 2.0 4.0 0.00 0.00 0.00 77 1008.8
20260505071532 62 343 2.0 4.0 0.00 0.00 0.00 70 1008.5
20260505070032 63 213 2.0 9.0 0.00 0.00 0.00 69 1008.4
20260505064528 63 203 5.0 9.0 0.00 0.00 0.00 68 1008.3
20260505063030 63 192 3.0 8.0 0.00 0.00 0.00 67 1008.2